Regional Weather Roundup
Issued by NWS

Home | Current Version | Previous Version | Text Only | Print | Product List | Glossary On
Versions: 1 2 3 4 5 6 7 8 9 10 11 12 13 14 15 16 17 18 19 20 21 22 23 24 25 26 27 28 29 30 31 32 33 34 35 36 37 38 39 40 41 42 43 44 45 46 47 48 49 50
000
ASUS45 KREV 020210
RWRNV
NEVADA REGIONAL WEATHER ROUNDUP
NATIONAL WEATHER SERVICE RENO NV
600 PM PST SUN MAR 01 2015

NOTE: "FAIR" INDICATES FEW OR NO CLOUDS BELOW 12,000 FEET WITH NO
SIGNIFICANT WEATHER AND/OR OBSTRUCTIONS TO VISIBILITY.

NVZ001-003-004-020300-
WESTERN NEVADA

CITY           SKY/WX    TMP DP  RH WIND       PRES   REMARKS
RENO           MOCLDY    42  26  53 N6        29.97S
CARSON CITY    FAIR      39  28  65 N7        29.96F
MINDEN         FAIR      36  27  69 NW9       29.96
SLIDE MTN        N/A     21  19  93 CALM        N/A
PYRAMID LAKE     N/A     43 N/A N/A W5          N/A
FALLON         PTCLDY    45  30  55 N6        29.94S
LOVELOCK       MOCLDY    46  26  45 CALM      29.94S
HAWTHORNE      CLOUDY    46  30  53 E12       29.96R
$$

NVZ002-CAZ072-073-020300-
NORTHERN AND CENTRAL SIERRA

CITY           SKY/WX    TMP DP  RH WIND       PRES   REMARKS
S. LAKE TAHOE  PTCLDY    32  24  72 CALM      29.93R
TRUCKEE        MOCLDY    32  27  80 SE3       29.95S
SQUAW VLY 8000   N/A     23  21  93 CALM        N/A
BLUE CANYON    CLEAR     37  24  59 E3        29.93S
MAMMOTH LAKES  MOCLDY    27  25  93 CALM      29.93R
BRIDGEPORT     CLOUDY    32  22  66 CALM      29.90R
$$

NVZ030-031-036-020300-
NORTHERN NEVADA

CITY           SKY/WX    TMP DP  RH WIND       PRES   REMARKS
ELKO           CLOUDY    41  21  44 E3        29.94S
WINNEMUCCA     NOT AVBL
WENDOVER       CLEAR     41  18  38 CALM      30.01R
$$

NVZ035-037-020300-
CENTRAL NEVADA

CITY           SKY/WX    TMP DP  RH WIND       PRES   REMARKS
ELY            CLOUDY    34  27  75 NE3       29.98R
EUREKA           N/A     35  26  69 SE5       29.96R
$$

NVZ013-014-020300-
SOUTH CENTRAL NEVADA

CITY           SKY/WX    TMP DP  RH WIND       PRES   REMARKS
TONOPAH        MOCLDY    35  30  82 NW8       29.94F
$$

NVZ017-020-022-020300-
SOUTHERN NEVADA

CITY           SKY/WX    TMP DP  RH WIND       PRES   REMARKS
LAS VEGAS      LGT RAIN  49  43  80 CALM      29.95R
N. LAS VEGAS   LGT RAIN  50  40  68 NW5       29.98R
NELLIS AFB     RAIN      50  44  80 N2        29.98R
HENDERSON      RAIN      47  43  86 CALM      29.99R
MERCURY        CLOUDY    47  34  60 SE6       29.93R
$$


USA.gov is the U.S. government's official web portal to all federal, state and local government web resources and services.